| time (UTC) | temp C | wind direction | speed KPH | gust KPH | rain 1hr cm | rain 24hr cm | rain mn cm | humidity % | barometer mb |
| 20260506104309 | 16 | 205 | 0.0 | 0.0 | 0.00 | 0.03 | 0.00 | 65 | 1005.7 |
| 20260506102324 | 16 | 205 | 0.0 | 0.0 | 0.00 | 0.03 | 0.00 | 65 | 1005.9 |
| 20260506101313 | 16 | 205 | 0.0 | 0.0 | 0.00 | 0.03 | 0.00 | 64 | 1005.9 |
| 20260506100321 | 16 | 205 | 0.0 | 0.0 | 0.00 | 0.03 | 0.00 | 64 | 1005.7 |
| 20260506095307 | 16 | 205 | 0.0 | 0.0 | 0.00 | 0.03 | 0.00 | 65 | 1005.7 |
| 20260506094319 | 16 | 205 | 0.0 | 0.0 | 0.00 | 0.03 | 0.00 | 66 | 1005.8 |
| 20260506093310 | 16 | 205 | 0.0 | 0.0 | 0.00 | 0.03 | 0.00 | 66 | 1006.0 |
| 20260506092252 | 16 | 205 | 0.0 | 0.0 | 0.00 | 0.03 | 0.00 | 66 | 1005.9 |
| 20260506091224 | 16 | 205 | 0.0 | 0.0 | 0.00 | 0.03 | 0.00 | 67 | 1006.3 |
| 20260506090201 | 16 | 205 | 0.0 | 0.0 | 0.00 | 0.03 | 0.00 | 67 | 1006.2 |
| 20260506085214 | 16 | 205 | 0.0 | 1.6 | 0.00 | 0.03 | 0.00 | 67 | 1006.1 |
| 20260506084205 | 16 | 205 | 0.0 | 0.0 | 0.00 | 0.03 | 0.00 | 66 | 1005.9 |
| 20260506080241 | 16 | 205 | 0.0 | 0.0 | 0.00 | 0.03 | 0.00 | 66 | 1006.3 |
| 20260506073247 | 16 | 205 | 0.0 | 0.0 | 0.00 | 0.03 | 0.00 | 64 | 1006.3 |
| 20260506072214 | 16 | 205 | 0.0 | 0.0 | 0.00 | 0.03 | 0.00 | 65 | 1006.4 |
| 20260506071200 | 16 | 205 | 0.0 | 0.0 | 0.00 | 0.03 | 0.00 | 67 | 1006.5 |
| 20260506060119 | 15 | 205 | 0.0 | 0.0 | 0.00 | 0.03 | 0.00 | 71 | 1007.0 |
| 20260506051152 | 16 | 205 | 0.0 | 0.0 | 0.00 | 0.03 | 0.00 | 67 | 1007.1 |
| 20260506050149 | 16 | 205 | 0.0 | 0.0 | 0.00 | 0.03 | 0.00 | 66 | 1007.2 |
| 20260506044144 | 17 | 205 | 0.0 | 0.0 | 0.00 | 0.03 | 0.00 | 65 | 1007.2 |
| 20260506043125 | 17 | 205 | 0.0 | 0.0 | 0.00 | 0.03 | 0.00 | 64 | 1007.3 |
| 20260506042126 | 17 | 205 | 0.0 | 0.0 | 0.00 | 0.03 | 0.03 | 63 | 1007.4 |
| 20260506040131 | 18 | 205 | 0.0 | 0.0 | 0.00 | 0.03 | 0.03 | 60 | 1007.2 |
| 20260506035136 | 18 | 205 | 0.0 | 0.0 | 0.00 | 0.03 | 0.03 | 59 | 1007.2 |
| 20260506034139 | 18 | 205 | 0.0 | 0.0 | 0.00 | 0.03 | 0.03 | 59 | 1007.2 |
| 20260506033121 | 19 | 205 | 0.0 | 0.0 | 0.00 | 0.03 | 0.03 | 58 | 1007.1 |
| 20260506032112 | 19 | 205 | 0.0 | 0.0 | 0.00 | 0.03 | 0.03 | 57 | 1007.1 |
| 20260506031111 | 20 | 205 | 0.0 | 0.0 | 0.00 | 0.03 | 0.03 | 56 | 1007.0 |
| 20260506030108 | 20 | 205 | 0.0 | 0.0 | 0.00 | 0.03 | 0.03 | 56 | 1007.2 |
| 20260506025118 | 20 | 205 | 0.0 | 0.0 | 0.00 | 0.03 | 0.03 | 54 | 1007.2 |
| 20260506024051 | 20 | 205 | 0.0 | 0.0 | 0.00 | 0.03 | 0.03 | 54 | 1007.2 |
| 20260506023108 | 21 | 205 | 0.0 | 0.0 | 0.00 | 0.03 | 0.03 | 53 | 1007.2 |
| 20260506022115 | 21 | 205 | 0.0 | 0.0 | 0.00 | 0.03 | 0.03 | 53 | 1007.1 |
| 20260506021110 | 21 | 205 | 0.0 | 0.0 | 0.00 | 0.03 | 0.03 | 51 | 1007.0 |
| 20260506015054 | 21 | 205 | 0.0 | 0.0 | 0.00 | 0.03 | 0.03 | 50 | 1006.7 |
| 20260506013059 | 22 | 205 | 0.0 | 0.0 | 0.00 | 0.03 | 0.03 | 50 | 1006.5 |
| 20260506011054 | 22 | 222 | 0.0 | 0.0 | 0.00 | 0.03 | 0.03 | 48 | 1006.3 |
| 20260506010047 | 22 | 222 | 0.0 | 0.0 | 0.00 | 0.03 | 0.03 | 47 | 1006.4 |
| 20260506005039 | 22 | 222 | 0.0 | 0.0 | 0.00 | 0.03 | 0.03 | 49 | 1006.3 |
| 20260506004050 | 22 | 222 | 0.0 | 0.0 | 0.00 | 0.03 | 0.03 | 48 | 1006.2 |
| 20260506003055 | 22 | 222 | 0.0 | 0.0 | 0.00 | 0.03 | 0.03 | 48 | 1006.1 |
| 20260505235107 | 22 | 222 | 0.0 | 0.0 | 0.00 | 0.03 | 0.03 | 49 | 1005.9 |
| 20260505234110 | 22 | 209 | 0.0 | 0.0 | 0.00 | 0.03 | 0.03 | 50 | 1005.9 |
| 20260505233121 | 23 | 208 | 0.0 | 0.0 | 0.00 | 0.03 | 0.03 | 50 | 1005.9 |
| 20260505232121 | 23 | 207 | 0.0 | 0.0 | 0.00 | 0.03 | 0.03 | 49 | 1005.8 |
| 20260505231128 | 23 | 207 | 0.0 | 0.0 | 0.00 | 0.03 | 0.03 | 48 | 1005.6 |
| 20260505230122 | 23 | 204 | 0.0 | 0.0 | 0.00 | 0.03 | 0.03 | 48 | 1005.5 |
| 20260505225132 | 23 | 314 | 0.0 | 0.0 | 0.00 | 0.03 | 0.03 | 48 | 1005.5 |
| 20260505224129 | 23 | 170 | 0.0 | 0.0 | 0.00 | 0.03 | 0.03 | 48 | 1005.7 |
| 20260505222112 | 23 | 117 | 0.0 | 0.0 | 0.00 | 0.03 | 0.03 | 46 | 1005.6 |
| 20260505194951 | 26 | 182 | 0.0 | 0.0 | 0.00 | 0.03 | 0.03 | 32 | 1005.2 |
| 20260505193932 | 27 | 327 | 0.0 | 0.0 | 0.00 | 0.03 | 0.03 | 31 | 1005.3 |
| 20260505192912 | 27 | 161 | 0.0 | 0.0 | 0.00 | 0.03 | 0.03 | 32 | 1005.5 |
| 20260505191919 | 27 | 322 | 4.8 | 19.3 | 0.00 | 0.03 | 0.03 | 32 | 1005.9 |
| 20260505185938 | 27 | 326 | 0.0 | 0.0 | 0.00 | 0.03 | 0.03 | 34 | 1005.9 |
| 20260505184937 | 27 | 331 | 0.0 | 0.0 | 0.00 | 0.03 | 0.03 | 34 | 1006.1 |
| 20260505181923 | 27 | 164 | 0.0 | 0.0 | 0.00 | 0.03 | 0.03 | 36 | 1006.6 |
| 20260505180915 | 27 | 302 | 0.0 | 0.0 | 0.00 | 0.03 | 0.03 | 36 | 1006.3 |
| 20260505175913 | 26 | 305 | 0.0 | 0.0 | 0.00 | 0.03 | 0.03 | 36 | 1006.4 |
| 20260505173913 | 26 | 148 | 0.0 | 0.0 | 0.00 | 0.03 | 0.03 | 39 | 1006.6 |
| 20260505172914 | 26 | 138 | 0.0 | 0.0 | 0.00 | 0.03 | 0.03 | 39 | 1006.5 |
| 20260505171912 | 26 | 308 | 0.0 | 0.0 | 0.00 | 0.03 | 0.03 | 40 | 1006.8 |
| 20260505170909 | 26 | 323 | 0.0 | 11.3 | 0.00 | 0.03 | 0.03 | 40 | 1006.9 |
| 20260505164929 | 26 | 175 | 0.0 | 12.9 | 0.03 | 0.03 | 0.03 | 42 | 1007.1 |
| 20260505162858 | 25 | 322 | 1.6 | 24.1 | 0.03 | 0.03 | 0.03 | 42 | 1007.2 |
| 20260505161847 | 25 | 165 | 0.0 | 24.1 | 0.03 | 0.03 | 0.03 | 42 | 1007.5 |
| 20260505160850 | 25 | 176 | 0.0 | 1.6 | 0.03 | 0.03 | 0.03 | 44 | 1007.4 |
| 20260505152937 | 23 | 321 | 0.0 | 0.0 | 0.00 | 0.00 | 0.00 | 50 | 1007.7 |
| 20260505151923 | 23 | 279 | 0.0 | 0.0 | 0.00 | 0.00 | 0.00 | 49 | 1007.7 |
| 20260505124936 | 12 | 109 | 0.0 | 0.0 | 0.00 | 0.00 | 0.00 | 86 | 1008.2 |
| 20260505123948 | 12 | 109 | 0.0 | 0.0 | 0.00 | 0.00 | 0.00 | 86 | 1008.1 |
| 20260505122950 | 11 | 109 | 0.0 | 0.0 | 0.00 | 0.00 | 0.00 | 85 | 1008.4 |
| 20260505121953 | 11 | 109 | 0.0 | 0.0 | 0.00 | 0.00 | 0.00 | 85 | 1008.4 |
| 20260505113906 | 11 | 109 | 0.0 | 0.0 | 0.00 | 0.00 | 0.00 | 86 | 1008.1 |
| 20260505112914 | 10 | 109 | 0.0 | 0.0 | 0.00 | 0.00 | 0.00 | 87 | 1008.0 |
| 20260505111920 | 11 | 109 | 0.0 | 0.0 | 0.00 | 0.00 | 0.00 | 87 | 1008.0 |
| 20260505110923 | 11 | 109 | 0.0 | 0.0 | 0.00 | 0.00 | 0.00 | 87 | 1007.9 |